TimeCDT,TemperatureF,Dew PointF,Humidity,Sea Level PressureIn,VisibilityMPH,Wind Direction,Wind SpeedMPH,Gust SpeedMPH,PrecipitationIn,Events,Conditions,WindDirDegrees,DateUTC
12:53 AM,72.0,69.1,91,29.96,9.0,Calm,Calm,-,N/A,,Clear,0,2013-10-16 05:53:00
1:53 AM,71.1,68.0,90,29.96,8.0,Calm,Calm,-,N/A,,Clear,0,2013-10-16 06:53:00
2:53 AM,71.1,68.0,90,29.93,8.0,Calm,Calm,-,N/A,,Clear,0,2013-10-16 07:53:00
3:53 AM,71.1,68.0,90,29.91,9.0,Calm,Calm,-,N/A,,Partly Cloudy,0,2013-10-16 08:53:00
4:53 AM,72.0,69.1,91,29.92,10.0,Calm,Calm,-,N/A,,Clear,0,2013-10-16 09:53:00
5:53 AM,71.1,68.0,90,29.94,10.0,Calm,Calm,-,N/A,,Overcast,0,2013-10-16 10:53:00
6:53 AM,71.1,68.0,90,29.95,10.0,Calm,Calm,-,N/A,,Overcast,0,2013-10-16 11:53:00
7:53 AM,73.0,71.1,93,29.96,9.0,SSE,3.5,-,0.03,,Overcast,160,2013-10-16 12:53:00
8:53 AM,73.9,71.1,91,29.98,10.0,Calm,Calm,-,N/A,,Scattered Clouds,0,2013-10-16 13:53:00
9:38 AM,75.2,73.4,94,29.99,10.0,Calm,Calm,-,N/A,,Mostly Cloudy,0,2013-10-16 14:38:00
9:53 AM,77.0,72.0,84,29.99,10.0,Calm,Calm,-,N/A,,Mostly Cloudy,0,2013-10-16 14:53:00
10:12 AM,78.8,71.6,78,29.99,10.0,Variable,3.5,-,N/A,,Scattered Clouds,0,2013-10-16 15:12:00
10:43 AM,78.8,71.6,78,29.98,10.0,Calm,Calm,-,N/A,,Mostly Cloudy,0,2013-10-16 15:43:00
10:53 AM,81.0,73.0,77,29.98,10.0,Variable,3.5,-,N/A,,Mostly Cloudy,0,2013-10-16 15:53:00
11:27 AM,82.4,69.8,66,29.97,10.0,West,4.6,-,N/A,,Scattered Clouds,260,2013-10-16 16:27:00
11:53 AM,84.0,69.1,61,29.96,10.0,WNW,5.8,-,N/A,,Mostly Cloudy,290,2013-10-16 16:53:00
12:53 PM,84.9,68.0,57,29.94,10.0,South,6.9,-,N/A,,Partly Cloudy,190,2013-10-16 17:53:00
1:53 PM,84.9,68.0,57,29.92,10.0,SW,6.9,-,N/A,,Mostly Cloudy,220,2013-10-16 18:53:00
2:53 PM,82.9,72.0,69,29.90,10.0,SE,5.8,-,N/A,,Mostly Cloudy,130,2013-10-16 19:53:00
3:53 PM,82.9,73.0,72,29.89,10.0,ENE,3.5,-,N/A,,Mostly Cloudy,60,2013-10-16 20:53:00
4:53 PM,84.0,73.0,69,29.89,10.0,SSE,3.5,-,N/A,,Mostly Cloudy,160,2013-10-16 21:53:00
5:53 PM,81.0,72.0,74,29.89,10.0,South,6.9,-,N/A,,Clear,170,2013-10-16 22:53:00
6:53 PM,78.1,72.0,81,29.91,10.0,Calm,Calm,-,N/A,,Clear,0,2013-10-16 23:53:00
7:53 PM,77.0,71.1,82,29.91,10.0,SSE,5.8,-,N/A,,Partly Cloudy,150,2013-10-17 00:53:00
8:53 PM,75.0,71.1,87,29.93,10.0,South,4.6,-,N/A,,Clear,180,2013-10-17 01:53:00
9:53 PM,75.0,71.1,87,29.94,10.0,Calm,Calm,-,N/A,,Partly Cloudy,0,2013-10-17 02:53:00
10:53 PM,75.0,71.1,87,29.94,10.0,Calm,Calm,-,N/A,,Overcast,0,2013-10-17 03:53:00
11:04 PM,73.4,71.6,94,29.94,10.0,NNE,4.6,-,N/A,,Overcast,30,2013-10-17 04:04:00
11:37 PM,73.4,71.6,94,29.94,10.0,NNE,3.5,-,N/A,,Overcast,20,2013-10-17 04:37:00
11:53 PM,73.9,71.1,91,29.94,10.0,NNE,5.8,-,N/A,,Overcast,30,2013-10-17 04:53:00